User: anonymous   Login
Location: Davayat
(45.9471°N, 3.1105°E)
Time: 06:52:12
(UTC+00:00)
Language:

Cosmos 1238 Rocket - Orbit

View from above orbital plane
View from above orbital plane
View from above satellite
View from above satellite

Ground track
Ground track

The orbit data is extracted from the following two-line orbital elements,

1 12139U 81003B   21057.52714764  .00002358  00000-0  10827-3 0  9998
2 12139  82.9477 103.3508 0460057 135.3034 228.6235 14.58039407 43473
Epoch (UTC): 26 February 2021 12:39:05
Eccentricity: 0.0460057
inclination: 82.9477°
perigee height: 374 km
apogee height: 1025 km
right ascension of ascending node: 103.3508°
argument of perigee: 135.3034°
revolutions per day: 14.58039407
mean anomaly at epoch: 228.6235°
orbit number at epoch: 4347

The dashed part of the orbit path shows where the satellite is in the earth's shadow,  

DLR